Location: Garbet
(42.8837°N, 1.2115°E)
Time: 05:53:40
(UTC+00:00)

Cosmos 1953 Rocket - Pass Details

Date: 23 March 2026
Orbit: 599 x 626 km, 82.5° (Epoch: 15 April)

Event Time Altitude Azimuth Distance (km) Brightness Sun altitude
Rises 04:05:45 0° 4° (N) 2,900 7.3 -20.1°
Reaches altitude 10° 04:08:21 10° 19° (NNE) 1,994 6.7 -19.6°
Maximum altitude 04:11:56 24° 73° (ENE) 1,309 6.1 -19.0°
Drops below altitude 10° 04:15:30 10° 127° (SE) 1,992 6.6 -18.4°
Sets 04:18:05 0° 141° (SE) 2,895 7.3 -18.0°
